Flag for Iran Weather past 2 weeks in Mashhad, Iran

Now
41 °F

Scattered clouds.


Feels Like: 38 °F
Forecast: 28 / 50 °F
Wind: 5 mph from Northeast

Location: Mashhad Airport

Current Time: Feb 1, 2015 at 10:04:40 AM

Latest Report: Feb 1, 2015 at 9:30 AM


Visibility: N/A

Pressure: 30.15 "Hg

Humidity: 70%

Dew point: 32 °F

Location of MashhadLocation

Historic Weather in Mashhad — Graph

°F

Mashhad temperature yesterday

Maximum temperature yesterday: 61 °F (at 2:30 PM)
Minimum temperature yesterday: 36 °F (at 4:30 AM)
Average temperature yesterday: 43 °F

Past Weeks' High & Low Weather Summary

 TemperatureHumidityPressure
High61 °F (Jan 31, 2:30 PM)100% (Jan 17, 10:00 PM)30.39 "Hg (Jan 17, 10:00 PM)
Low25 °F (Jan 26, 6:59 AM)20% (Jan 22, 2:30 PM)29.74 "Hg (Jan 31, 1:30 PM)
Average37 °F77%30.15 "Hg
* Reported Jan 17 8:30 AM — Feb 1 9:00 AM, Mashhad, Weather by CustomWeather, © 2014

Note: Actual official high and low records may vary slightly from our data, if they occured in-between our weather recording intervals... More about our weather records

Advertising

Mashhad weather history for previous 24 hours

 ConditionsComfort  
Time TempWeatherWind HumidityBarometerVisibility
9:00 AM
Feb 1
39 °FScattered clouds.5 mph75%30.15 "HgN/A
8:30 AM39 °FPartly sunny.9 mph75%30.15 "HgN/A
8:00 AM37 °FScattered clouds.12 mph81%30.15 "HgN/A
7:30 AM36 °FPassing clouds.9 mph87%30.15 "HgN/A
6:30 AM36 °FPassing clouds.5 mph87%30.12 "HgN/A
5:30 AM36 °FPassing clouds.No wind87%30.12 "HgN/A
5:00 AM36 °FPassing clouds.No wind87%30.12 "HgN/A
4:30 AM36 °FPassing clouds.No wind87%30.12 "HgN/A
3:58 AM34 °FPassing clouds.No wind93%30.12 "HgN/A
3:20 AM34 °FClear.5 mph93%30.12 "Hg10 mi
3:00 AM34 °FClear.5 mph93%30.12 "Hg10 mi
2:30 AM32 °FClear.7 mph93%30.12 "Hg10 mi
2:00 AM34 °FClear.5 mph87%30.12 "Hg10 mi
1:30 AM34 °FClear.5 mph87%30.09 "Hg10 mi
12:30 AM36 °FClear.5 mph81%30.09 "Hg10 mi
12:00 AM36 °FClear.7 mph81%30.09 "Hg10 mi
11:30 PM
Jan 31
37 °FClear.7 mph75%30.07 "Hg10 mi
10:30 PM39 °FClear.9 mph70%30.07 "Hg10 mi
10:00 PM39 °FClear.9 mph70%30.07 "Hg10 mi
9:30 PM39 °FClear.7 mph70%30.07 "Hg10 mi
8:51 PM39 °FClear.18 mph70%30.04 "Hg10 mi
8:30 PM39 °FClear.23 mph70%30.01 "Hg10 mi
8:00 PM41 °FClear.25 mph66%30.01 "Hg10 mi
7:30 PM39 °FClear.18 mph75%29.98 "Hg10 mi
7:00 PM39 °FClear.23 mph75%29.98 "Hg10 mi
6:30 PM41 °FPassing clouds.23 mph70%29.95 "HgN/A
6:00 PM41 °FPassing clouds.23 mph70%29.92 "HgN/A
5:30 PM43 °FPassing clouds.18 mph71%29.92 "HgN/A
4:55 PM43 °FScattered clouds.21 mph71%29.89 "HgN/A
4:30 PM43 °FScattered clouds.21 mph71%29.86 "HgN/A
4:00 PM45 °FScattered clouds.21 mph71%29.86 "HgN/A
3:30 PM43 °FPartly sunny.21 mph81%29.86 "HgN/A
3:00 PM45 °FBroken clouds.28 mph81%29.83 "HgN/A
2:30 PM61 °FSprinkles. Broken clouds.21 mph39%29.80 "Hg4 mi
2:00 PM55 °FScattered clouds.9 mph59%29.74 "HgN/A
1:30 PM54 °FScattered clouds.9 mph63%29.74 "HgN/A
1:00 PM54 °FPartly sunny.7 mph63%29.77 "HgN/A
12:30 PM54 °FScattered clouds.7 mph63%29.80 "HgN/A
11:55 AM54 °FScattered clouds.5 mph63%29.80 "HgN/A
11:30 AM54 °FScattered clouds.9 mph63%29.80 "HgN/A
10:55 AM52 °FScattered clouds.5 mph67%29.83 "HgN/A
10:30 AM52 °FScattered clouds.9 mph62%29.86 "HgN/A
Weather by CustomWeather, © 2014

See weather overviewHow to use our weather pages